sat.trackr.live / text

‹ back to catalog

FLOCK 4H-28

NORAD 66731 · 2025-276BT

PAYLOAD ACTIVE UNKNOWN

§ Identity

Operator
Country
US
Launch date
2025-11-28
Launch site
AFWTR
Launch vehicle
Mass (kg)
RCS (m²)

Purposes: earth_obs

External: N2YO · Heavens-Above · Gunter

§ Orbital elements

Epoch: 2026-05-24T22:15:57.052224Z

Period
94.78 min
Inclination
97.4184°
Eccentricity
0.0006173
Mean motion
15.19336817 rev/d
Perigee alt
503.6 km
Apogee alt
512.1 km
Semi-major
6,886.0 km
B*
2.5323e-4
RAAN
218.7318°
Arg perigee
95.7927°
Mean anomaly
264.4012°
Rev number
2,688

§ Raw data

FLOCK 4H-281 66731U 25276BT  26144.92774366  .00005285  00000+0  25323-3 0  99932 66731  97.4184 218.7318 0006173  95.7927 264.4012 15.19336817 26881

JSON: /api/v1/satellites/66731 · /tle

For live sub-satellite position, see the globe view (requires WebGL).

§ Visibility from observer

Set your observer location to see the next 7 days of passes ≥ 10°. The values pass through the URL so the page stays shareable.

No JS? Fill the form by hand. The geolocation button needs JavaScript.